Location: Ladd Observatory
(41.8387°N, 71.3996°W)
Time: 21:58:20
(UTC-04:00)

Daily predictions for brighter satellites

Satellite Brightness Start Highest point End
(mag) Time Altitude Azimuth Time Altitude Azimuth Time Altitude Azimuth
Cosmos 1892 Rocket 3.6 19:44:11 10° N 19:48:41 86° E 19:53:10 10° S
Meteor 2-4 Rocket 4.1 19:44:07 10° NNW 19:50:00 76° W 19:55:54 10° S
Cosmos 1570 Rocket 4.0 19:46:53 10° SSW 19:52:11 85° ESE 19:57:29 10° NNE
Cosmos 1455 Rocket 3.1 19:47:56 10° S 19:52:12 61° E 19:56:31 10° NNE
Cosmos 2084 4.3 19:48:30 10° NNW 19:52:12 33° NE 19:56:04 10° ESE
Cosmos 1602 Rocket 4.2 19:52:59 10° N 19:57:08 36° ENE 20:01:13 10° SE
Cosmos 2123 Rocket 4.0 19:51:16 10° N 19:57:26 67° E 20:03:34 10° SSE
EO 1 Delta rocket 4.3 19:53:31 10° NNE 19:58:06 47° E 20:03:24 10° S
Cosmos 1980 Rocket 3.5 19:56:10 10° SE 19:59:54 18° E 20:03:38 10° ENE
Cosmos 2369 3.7 19:54:40 10° SSW 20:00:19 75° ESE 20:06:01 10° NNE
Lacrosse 5 2.7 19:56:10 10° NW 20:00:56 39° NE 20:05:40 10° ESE
Cosmos 220 Rocket 4.3 19:57:23 10° N 20:01:28 46° ENE 20:05:32 10° SE
Resurs 1-3 4.0 20:01:10 10° S 20:05:31 69° WSW 20:09:55 10° NNW
H-2A R/B 2.9 20:02:12 10° SSE 20:06:00 55° ENE 20:09:53 10° N
ERS-1 Rocket 3.9 20:08:29 10° SE 20:12:50 30° ENE 20:17:11 10° N
Cosmos 1975 3.0 20:09:44 10° S 20:13:42 50° E 20:17:41 10° NNE
FENGYUN 3A 3.6 20:12:20 10° SSE 20:17:42 87° ENE 20:23:05 10° NNW
Lacrosse 5 rocket 1.5 20:15:10 10° NW 20:18:50 57° SW 20:22:13 11° SSE
Cosmos 1656 3.7 20:14:28 10° S 20:19:59 61° ESE 20:25:28 10° NNE
BREEZE-M DEB (TANK) 4.3 20:17:33 10° NW 20:20:38 41° NNE 20:28:34 11° E
Cosmos 1934 Rocket 4.4 20:15:57 10° SSW 20:22:04 67° W 20:28:18 10° N
Cosmos 1898 Rocket 3.6 20:22:23 10° NNW 20:27:39 59° ENE 20:32:15 13° SE
DELTA 2 R/B (1) 4.0 20:22:51 10° W 20:28:15 52° SSW 20:32:20 17° SE
CZ-2D R/B 3.5 20:24:26 10° S 20:28:17 71° W 20:32:11 10° NNW
Cosmos 1153 Rocket 4.4 20:22:26 10° S 20:28:33 67° E 20:34:39 10° NNE
Cosmos 2227 Rocket 2.8 20:23:25 10° NNW 20:28:59 57° WSW 20:34:29 10° S
Resurs 01 Rocket 3.7 20:26:07 10° SSW 20:29:57 29° W 20:33:50 10° NW
Cosmos 2322 Rocket 4.1 20:35:12 11° ENE 20:35:12 11° ENE 20:35:44 10° ENE
Cosmos 1500 3.2 20:31:59 10° S 20:35:39 57° E 20:39:22 10° NNE
CZ-4 DEB 3.1 20:34:36 23° SE 20:36:09 43° ENE 20:39:10 10° N
Meteor 1-12 Rocket 4.3 20:30:30 10° S 20:36:14 86° W 20:42:08 10° N
Cosmos 1447 Rocket 4.5 20:30:09 10° N 20:36:30 78° E 20:42:51 10° S
OAO 2 Rocket 4.0 20:36:40 10° WSW 20:41:18 38° S 20:43:52 23° SE
Cosmos 468 Rocket 3.9 20:36:21 10° S 20:41:24 67° ESE 20:46:31 10° NNE
Cosmos 2297 Rocket 2.7 20:38:31 10° NNW 20:44:05 60° WSW 20:49:38 10° S
Cosmos 1340 3.6 20:41:14 10° NNE 20:44:36 30° ENE 20:45:26 27° E
Cosmos 1802 Rocket 4.4 20:38:48 10° SSE 20:44:49 45° E 20:50:54 10° NNE
Cosmos 841 Rocket 4.2 20:43:38 14° SSE 20:47:29 32° E 20:52:04 10° NE
ALOS 3.5 20:43:54 10° S 20:48:20 42° W 20:52:47 10° NNW
Cosmos 972 Rocket 4.5 20:42:49 10° NNW 20:48:48 68° ENE 20:53:58 17° SSE
Cosmos 1939 Rocket 3.1 20:49:05 26° SE 20:51:11 54° ENE 20:55:15 10° N
Cosmos 1814 Rocket 3.9 20:47:41 10° S 20:52:59 72° ESE 20:58:17 10° NNE
Cosmos 1726 Rocket 4.3 20:53:14 30° ESE 20:54:02 32° E 20:57:56 10° NNE
Cosmos 2016 Rocket 4.3 20:50:26 15° SSE 20:55:09 44° E 21:00:59 10° NNE
USA 186 3.4 20:52:35 10° SSW 20:55:19 30° W 20:57:55 10° NW
OTV 4 3.1 20:57:44 10° SW 20:58:10 10° SSW 20:58:28 10° SSW
Cosmos 1515 4.3 20:55:28 10° NNW 20:59:14 56° W 21:02:35 13° S
ASTEX 1 3.9 21:00:23 10° NNE 21:05:03 38° E 21:06:03 34° ESE
Cosmos 2173 Rocket 3.9 21:00:57 10° S 21:07:18 77° E 21:13:38 10° N
Cosmos 1825 Rocket 3.5 21:03:37 10° N 21:08:03 70° E 21:09:42 37° SSE
Cosmos 1743 2.7 21:13:07 24° S 21:15:22 85° W 21:19:19 10° N
RESURS DK-1 2.7 21:14:11 10° NNW 21:18:17 62° WSW 21:19:37 39° S
Cosmos 1953 Rocket 3.5 21:14:32 10° N 21:19:00 68° E 21:19:57 51° SE
Cosmos 967 Rocket 4.4 21:12:48 10° NNW 21:19:12 76° ENE 21:21:48 37° SE
Tiangong 1 1.6 21:16:16 10° W 21:18:49 50° WSW 21:18:49 50° WSW
BREEZE-M DEB (TANK) 3.7 21:04:37 10° WSW 21:19:33 84° SSE 21:22:26 25° ENE
Cosmos 1697 Rocket 3.2 21:14:13 10° SW 21:19:47 60° WNW 21:25:24 10° NNE
H-2A R/B 1.8 21:20:46 58° SE 21:21:26 74° ENE 21:25:36 10° N
Cosmos 2100 Rocket 4.1 21:16:20 10° SSW 21:22:36 75° W 21:28:50 10° N
Nimbus 7 Rocket 4.4 21:19:29 10° NNE 21:25:34 71° ESE 21:30:16 18° S
Envisat 3.1 21:23:26 29° S 21:26:03 74° WSW 21:31:10 10° NNW
Cosmos 2228 4.1 21:30:30 30° NE 21:30:30 30° NE 21:33:08 10° NNE
Cosmos 1937 Rocket 4.1 21:24:10 10° NNW 21:29:19 55° WSW 21:32:04 27° S
SL-16 R/B 3.0 21:31:23 32° ENE 21:31:23 32° ENE 21:35:11 10° NE
Tsikada Rocket 4.1 21:26:24 10° N 21:32:45 58° E 21:34:27 45° SE
Cosmos 2061 Rocket 4.3 21:26:30 10° SSW 21:32:47 69° W 21:39:02 10° N
ARGOS 3.4 21:34:52 45° E 21:35:27 47° ENE 21:40:36 10° N
Cosmos 1758 Rocket 3.4 21:33:13 10° N 21:37:35 89° W 21:37:55 77° S
SL-19 R/B 4.2 21:33:28 10° NNE 21:38:37 51° E 21:38:37 51° E
Cosmos 990 Rocket 4.4 21:35:01 10° NNW 21:40:12 60° WSW 21:41:59 38° SSW
CZ-4B R/B 4.5 21:37:22 10° NNE 21:40:07 29° NE 21:40:07 29° NE
deb Chang Zheng 4 3.8 21:38:26 10° N 21:42:53 71° WNW 21:44:26 40° SW
Cosmos 1980 Rocket 2.6 21:37:40 10° SW 21:43:17 64° WNW 21:48:58 10° NNE
Lacrosse 5 2.6 21:39:11 10° WNW 21:43:55 41° SW 21:44:53 37° SSW
H-2A R/B 3.1 21:46:50 29° NE 21:46:50 29° NE 21:50:28 10° N
Cosmos 1842 3.6 21:42:43 10° N 21:46:02 62° NNW 21:46:02 62° NNW
MetOp-B 4.1 21:46:49 57° S 21:47:58 86° WSW 21:53:21 10° NNW
SPOT 5 3.1 21:49:22 54° SSW 21:50:21 69° WSW 21:55:09 10° NNW
ERS-1 Rocket 4.5 21:48:21 17° SSW 21:51:31 32° W 21:56:00 10° NNW
Cosmos 1816 Rocket 4.5 21:45:43 10° N 21:52:04 64° E 21:52:59 58° ESE
Meteor 2-17 Rocket 4.5 21:52:22 54° E 21:52:22 54° E 21:58:13 10° NNE
Cosmos 1725 Rocket 3.9 21:53:16 44° S 21:55:26 89° E 22:01:43 10° N
Cosmos 836 Rocket 4.5 21:56:48 55° SSW 21:57:59 84° WNW 22:03:20 10° NNE
BREEZE-M TANK 3.4 21:51:40 10° WNW 21:58:04 44° SW 21:58:04 44° SW
Cosmos 1666 3.8 22:00:57 42° NW 22:00:57 42° NW 22:03:51 10° N
Cosmos 2058 Rocket 3.6 22:03:45 55° W 22:04:03 56° W 22:08:31 10° N
Cosmos 2098 Rocket 4.2 22:00:54 26° SSW 22:04:52 69° W 22:10:34 10° N
SPOT 1/Viking Rocket 3.4 22:05:15 86° SW 22:05:20 87° WSW 22:10:35 10° NNW
Cosmos 1763 Rocket 4.5 22:00:52 10° SW 22:05:43 43° WNW 22:10:34 10° N
Cosmos 2263 Rocket 2.6 22:04:09 10° NNW 22:09:09 48° NE 22:09:09 48° NE
Meteor 2-5 Rocket 4.1 22:07:57 10° N 22:13:10 52° NE 22:13:10 52° NE
Terra 3.0 22:15:54 33° NNE 22:15:54 33° NNE 22:18:56 10° N
Cosmos 1125 Rocket 3.6 22:10:46 10° NNW 22:15:41 70° W 22:15:41 70° W
Cosmos 2322 Rocket 2.1 22:16:55 81° N 22:16:55 81° N 22:22:20 10° NNE
Cosmos 2233 Rocket 3.8 22:19:10 84° SE 22:19:17 85° E 22:25:33 10° N
USA 215 3.6 22:18:44 48° ENE 22:20:00 55° NNE 22:26:21 10° NW
BREEZE-M DEB (TANK) 3.7 22:07:40 10° WNW 22:25:06 80° NNE 22:25:51 70° E
Cosmos 540 Rocket 4.4 22:42:33 45° NNW 22:42:33 45° NNW 22:46:18 10° NNE
Cosmos 2278 Rocket 4.3 22:55:27 10° N 22:58:31 16° NE 22:58:31 16° NE
Cosmos 1464 Rocket 4.5 23:07:00 56° N 23:07:00 56° N 23:11:53 10° N
SL-16 R/B 3.6 23:13:10 31° WNW 23:14:08 33° WNW 23:19:16 10° N
Cosmos 1844 Rocket 4.2 23:16:12 10° NNW 23:19:29 31° NNE 23:19:29 31° NNE
H-2A R/B 3.9 23:27:30 24° WNW 23:27:30 24° WNW 23:29:57 10° NNW
Cosmos 2360 Rocket 3.6 23:30:08 33° N 23:30:08 33° N 23:33:16 10° NNE
Cosmos 2219 Rocket 4.5 23:51:39 16° NE 23:51:39 16° NE 23:52:45 10° NE
Terra 4.5 23:54:47 14° NW 23:54:47 14° NW 23:55:51 10° NW
Cosmos 2263 Rocket 4.3 23:48:49 10° NW 23:50:51 18° WNW 23:50:51 18° WNW
